Location: ??
(34.7707°N, 135.6540°E)
Time: 04:49:35
(UTC+00:00)

CZ-4C R/B - Pass Details

Date: 09 April 2020
Orbit: 637 x 1365 km, 63.4° (Epoch: 05 June)

Event Time Altitude Azimuth Distance (km) Brightness Sun altitude
Rises 12:06:48 0° 340° (NNW) 3,846 6.4 -31.1°
Reaches altitude 10° 12:10:07 10° 356° (N) 3,015 5.5 -31.7°
Maximum altitude 12:15:32 21° 44° (NE) 2,436 4.5 -32.5°
Enters shadow 12:15:48 21° 47° (NE) 2,444 4.5 -32.6°
